Location: Chanteloup
(48.8560°N, 2.7390°E)
Time: 12:58:23
(UTC+00:00)

H-2A R/B - Pass Details

Date: 24 October 2021
Orbit: 577 x 653 km, 98.5° (Epoch: 05 December)

Event Time Altitude Azimuth Distance (km) Brightness Sun altitude
Rises 18:44:20 0° 16° (NNE) 2,814 5.3 -20.7°
Enters shadow 18:44:36 - 17° (NNE) 2,705 5.2 -20.7°
Exits shadow 18:51:04 62° 141° (SE) 671 1.9 -21.8°
Drops below altitude 10° 18:54:48 10° 186° (S) 1,932 4.6 -22.4°
Sets 18:56:59 0° 189° (S) 2,841 5.5 -22.8°
